Radiation Dose at Monitoring Post of Fukushima Daini Nuclear Power Station
Date,Time,MP-1(microSv/h),MP-2(microSv/h),MP-3(microSv/h),MP-4(microSv/h),MP-5(microSv/h),MP-6(microSv/h),MP-7(microSv/h),Wind Direction,Wind Velocity(m/s),Rain
2015/01/11,00:00,0.604,0.382,0.642,0.579,0.567,0.263,0.236,northwest,3.9,No
2015/01/11,00:10,0.604,0.383,0.640,0.581,0.567,0.263,0.236,north-northwest,4.1,No
2015/01/11,00:20,0.603,0.383,0.642,0.580,0.566,0.264,0.236,northwest,3.8,No
2015/01/11,00:30,0.603,0.381,0.642,0.579,0.566,0.262,0.237,west-northwest,4.7,No
2015/01/11,00:40,0.606,0.383,0.642,0.579,0.567,0.261,0.236,west-northwest,4.7,No
2015/01/11,00:50,0.604,0.382,0.641,0.578,0.568,0.263,0.237,northwest,2.8,No
2015/01/11,01:00,0.604,0.382,0.641,0.581,0.567,0.262,0.236,northwest,3.9,No
2015/01/11,01:10,0.604,0.382,0.641,0.581,0.566,0.262,0.236,northwest,4.7,No
2015/01/11,01:20,0.605,0.382,0.639,0.580,0.568,0.263,0.237,northwest,4.7,No
2015/01/11,01:30,0.605,0.383,0.641,0.580,0.567,0.262,0.236,northwest,5.3,No
2015/01/11,01:40,0.603,0.381,0.641,0.580,0.566,0.263,0.236,northwest,4.7,No
2015/01/11,01:50,0.606,0.382,0.642,0.581,0.566,0.263,0.237,northwest,6.6,No
2015/01/11,02:00,0.604,0.382,0.642,0.579,0.567,0.263,0.237,northwest,6.0,No
2015/01/11,02:10,0.604,0.382,0.639,0.581,0.566,0.263,0.237,northwest,6.4,No
2015/01/11,02:20,0.605,0.383,0.641,0.579,0.567,0.262,0.237,northwest,4.8,No
2015/01/11,02:30,0.604,0.384,0.643,0.580,0.567,0.263,0.235,northwest,5.8,No
2015/01/11,02:40,0.603,0.383,0.640,0.580,0.568,0.263,0.236,northwest,4.4,No
2015/01/11,02:50,0.604,0.381,0.642,0.581,0.568,0.264,0.236,northwest,2.5,No
2015/01/11,03:00,0.605,0.383,0.641,0.580,0.567,0.262,0.237,northwest,4.1,No
2015/01/11,03:10,0.603,0.383,0.642,0.580,0.567,0.262,0.237,northwest,3.4,No
2015/01/11,03:20,0.603,0.383,0.640,0.581,0.568,0.263,0.236,north-northwest,3.6,No
2015/01/11,03:30,0.603,0.381,0.640,0.581,0.566,0.263,0.237,north-northwest,2.6,No
2015/01/11,03:40,0.605,0.382,0.640,0.580,0.566,0.262,0.237,northwest,2.8,No
2015/01/11,03:50,0.606,0.381,0.642,0.581,0.568,0.262,0.236,north-northwest,3.4,No
2015/01/11,04:00,0.605,0.382,0.641,0.581,0.568,0.263,0.236,north-northwest,3.2,No
2015/01/11,04:10,0.605,0.382,0.641,0.580,0.567,0.262,0.237,northwest,2.8,No
2015/01/11,04:20,0.604,0.382,0.643,0.580,0.569,0.264,0.237,northwest,3.1,No
2015/01/11,04:30,0.606,0.383,0.641,0.580,0.568,0.262,0.237,west-northwest,4.7,No
2015/01/11,04:40,0.606,0.383,0.642,0.579,0.567,0.263,0.237,northwest,1.9,No
2015/01/11,04:50,0.605,0.382,0.640,0.580,0.565,0.262,0.236,west-northwest,2.7,No
2015/01/11,05:00,0.605,0.381,0.639,0.579,0.566,0.262,0.236,northwest,1.9,No
2015/01/11,05:10,0.603,0.382,0.642,0.580,0.566,0.262,0.236,west-northwest,2.2,No
2015/01/11,05:20,0.603,0.382,0.641,0.580,0.568,0.262,0.236,west,1.9,No
2015/01/11,05:30,0.604,0.383,0.642,0.579,0.566,0.263,0.236,north-northeast,0.9,No
2015/01/11,05:40,0.603,0.382,0.641,0.579,0.566,0.261,0.237,north-northwest,4.0,No
2015/01/11,05:50,0.605,0.383,0.641,0.579,0.565,0.262,0.236,northwest,3.6,No
2015/01/11,06:00,0.605,0.382,0.640,0.579,0.567,0.262,0.236,west-northwest,3.4,No
2015/01/11,06:10,0.602,0.381,0.641,0.580,0.566,0.262,0.236,northwest,2.5,No
2015/01/11,06:20,0.603,0.381,0.642,0.581,0.568,0.263,0.235,west,4.7,No
2015/01/11,06:30,0.604,0.384,0.640,0.581,0.566,0.261,0.236,west-southwest,2.4,No
2015/01/11,06:40,0.603,0.381,0.640,0.580,0.566,0.262,0.236,southwest,1.4,No
2015/01/11,06:50,0.604,0.381,0.641,0.579,0.567,0.262,0.236,south,2.2,No
2015/01/11,07:00,0.605,0.383,0.643,0.578,0.566,0.263,0.237,south-southwest,2.0,No
2015/01/11,07:10,0.601,0.381,0.642,0.579,0.567,0.262,0.236,south-southwest,2.2,No
2015/01/11,07:20,0.603,0.383,0.641,0.580,0.567,0.263,0.237,south-southwest,3.3,No
2015/01/11,07:30,0.602,0.382,0.643,0.580,0.568,0.263,0.236,southwest,1.7,No
2015/01/11,07:40,0.603,0.383,0.640,0.580,0.565,0.262,0.236,south-southwest,3.0,No
2015/01/11,07:50,0.605,0.381,0.640,0.581,0.567,0.263,0.237,south-southwest,4.2,No
2015/01/11,08:00,0.604,0.384,0.642,0.581,0.566,0.262,0.236,southwest,4.5,No
2015/01/11,08:10,0.604,0.382,0.641,0.580,0.567,0.263,0.237,south-southwest,2.9,No
2015/01/11,08:20,0.603,0.382,0.641,0.579,0.566,0.262,0.236,south,3.4,No
2015/01/11,08:30,0.604,0.382,0.643,0.582,0.568,0.262,0.235,south,4.4,No
2015/01/11,08:40,0.603,0.382,0.643,0.579,0.566,0.260,0.237,south,1.9,No
2015/01/11,08:50,0.602,0.383,0.642,0.580,0.568,0.261,0.235,south,2.6,No
2015/01/11,09:00,0.604,0.382,0.641,0.581,0.566,0.263,0.237,southwest,2.5,No
2015/01/11,09:10,0.606,0.382,0.640,0.582,0.567,0.260,0.236,-,CALM,No
2015/01/11,09:20,0.603,0.383,0.642,0.583,0.568,0.262,0.236,north-northwest,0.6,No
2015/01/11,09:30,0.604,0.383,0.642,0.580,0.568,0.262,0.236,-,CALM,No
2015/01/11,09:40,0.604,0.383,0.641,0.582,0.568,0.262,0.235,west-northwest,2.1,No
2015/01/11,09:50,0.603,0.383,0.642,0.583,0.567,0.263,0.235,west-southwest,3.3,No
2015/01/11,10:00,0.604,0.383,0.642,0.583,0.568,0.262,0.236,west-northwest,4.3,No
2015/01/11,10:10,0.606,0.381,0.642,0.582,0.567,0.263,0.237,northwest,3.5,No
2015/01/11,10:20,0.606,0.382,0.642,0.582,0.568,0.263,0.236,west-northwest,4.9,No
2015/01/11,10:30,0.605,0.383,0.642,0.582,0.568,0.262,0.236,northwest,6.4,No
2015/01/11,10:40,0.605,0.383,0.642,0.582,0.568,0.262,0.237,northwest,5.6,No
2015/01/11,10:50,0.604,0.383,0.643,0.583,0.568,0.262,0.236,west-northwest,6.1,No
2015/01/11,11:00,0.605,0.384,0.642,0.583,0.567,0.263,0.237,west-northwest,6.4,No
2015/01/11,11:10,0.606,0.383,0.642,0.584,0.568,0.264,0.236,west-northwest,8.4,No
2015/01/11,11:20,0.605,0.383,0.643,0.582,0.568,0.264,0.236,west,8.4,No
2015/01/11,11:30,0.606,0.383,0.643,0.582,0.569,0.263,0.238,west-northwest,7.5,No
2015/01/11,11:40,0.606,0.384,0.643,0.582,0.568,0.262,0.236,west-northwest,9.8,No
2015/01/11,11:50,0.606,0.384,0.642,0.582,0.568,0.263,0.237,west-northwest,7.6,No
2015/01/11,12:00,0.605,0.384,0.643,0.583,0.568,0.263,0.238,west-northwest,5.0,No
2015/01/11,12:10,0.604,0.384,0.643,0.582,0.567,0.264,0.237,northwest,7.0,No
2015/01/11,12:20,0.605,0.384,0.641,0.581,0.567,0.264,0.237,west,6.2,No
2015/01/11,12:30,0.604,0.383,0.645,0.582,0.568,0.263,0.237,northwest,4.5,No
2015/01/11,12:40,0.606,0.384,0.644,0.583,0.569,0.264,0.237,west-northwest,6.7,No
2015/01/11,12:50,0.607,0.384,0.642,0.584,0.569,0.264,0.236,northwest,4.9,No
2015/01/11,13:00,0.608,0.384,0.644,0.583,0.569,0.263,0.237,north-northwest,4.9,No
2015/01/11,13:10,0.606,0.385,0.645,0.583,0.569,0.264,0.236,northwest,3.9,No
2015/01/11,13:20,0.606,0.384,0.645,0.583,0.570,0.263,0.237,north-northwest,4.5,No
2015/01/11,13:30,0.606,0.384,0.643,0.582,0.569,0.262,0.237,west-northwest,3.7,No
2015/01/11,13:40,0.606,0.385,0.644,0.583,0.568,0.263,0.237,northwest,4.9,No
2015/01/11,13:50,0.606,0.385,0.643,0.582,0.569,0.263,0.237,west-northwest,6.2,No
2015/01/11,14:00,0.606,0.385,0.643,0.582,0.569,0.263,0.237,northwest,6.2,No
2015/01/11,14:10,0.606,0.385,0.643,0.582,0.567,0.262,0.238,north,3.4,No
2015/01/11,14:20,0.605,0.384,0.645,0.583,0.568,0.262,0.238,north,3.5,No
2015/01/11,14:30,0.607,0.383,0.644,0.584,0.568,0.264,0.237,north,2.9,No
2015/01/11,14:40,0.605,0.383,0.643,0.582,0.569,0.263,0.237,north-northeast,2.6,No
2015/01/11,14:50,0.606,0.383,0.644,0.582,0.568,0.264,0.235,north-northeast,3.1,No
2015/01/11,15:00,0.605,0.384,0.642,0.583,0.568,0.262,0.238,north-northeast,2.2,No
2015/01/11,15:10,0.607,0.384,0.642,0.582,0.567,0.264,0.238,northeast,4.5,No
2015/01/11,15:20,0.606,0.384,0.643,0.582,0.569,0.264,0.238,north-northeast,4.6,No
2015/01/11,15:30,0.606,0.385,0.642,0.583,0.569,0.262,0.237,north-northeast,3.9,No
2015/01/11,15:40,0.605,0.384,0.643,0.581,0.570,0.263,0.239,north-northeast,3.1,No
2015/01/11,15:50,0.605,0.385,0.642,0.583,0.568,0.261,0.238,north-northeast,2.7,No
2015/01/11,16:00,0.605,0.383,0.642,0.581,0.569,0.263,0.239,north-northeast,2.1,No
2015/01/11,16:10,0.607,0.383,0.642,0.581,0.569,0.263,0.238,north-northeast,2.6,No
2015/01/11,16:20,0.607,0.383,0.644,0.581,0.570,0.263,0.238,north,1.5,No
2015/01/11,16:30,0.606,0.384,0.642,0.581,0.568,0.263,0.238,north,2.6,No
2015/01/11,16:40,0.605,0.383,0.644,0.581,0.568,0.263,0.239,north,2.1,No
2015/01/11,16:50,0.605,0.384,0.643,0.584,0.569,0.261,0.237,north-northeast,2.0,No
2015/01/11,17:00,0.606,0.384,0.640,0.581,0.567,0.262,0.238,north,2.8,No
2015/01/11,17:10,0.605,0.383,0.642,0.580,0.568,0.262,0.237,north,3.1,No
2015/01/11,17:20,0.605,0.385,0.642,0.582,0.568,0.263,0.237,north,3.3,Yes
2015/01/11,17:30,0.606,0.384,0.643,0.582,0.568,0.262,0.237,north,3.3,Yes
2015/01/11,17:40,0.605,0.384,0.644,0.581,0.568,0.264,0.237,north-northwest,2.8,Yes
2015/01/11,17:50,0.608,0.384,0.643,0.584,0.568,0.264,0.240,north-northwest,6.2,Yes
2015/01/11,18:00,0.607,0.385,0.644,0.582,0.570,0.264,0.239,north-northwest,8.7,Yes
2015/01/11,18:10,0.610,0.385,0.643,0.582,0.570,0.265,0.240,north-northwest,9.9,Yes
2015/01/11,18:20,0.607,0.386,0.643,0.583,0.569,0.266,0.240,north-northwest,9.2,Yes
2015/01/11,18:30,0.608,0.387,0.645,0.584,0.570,0.266,0.240,north-northwest,8.4,Yes
2015/01/11,18:40,0.607,0.386,0.645,0.583,0.569,0.267,0.241,north-northwest,7.5,Yes
2015/01/11,18:50,0.608,0.387,0.644,0.583,0.571,0.268,0.243,north-northwest,7.1,Yes
2015/01/11,19:00,0.607,0.387,0.645,0.584,0.570,0.271,0.243,north-northwest,6.2,Yes
2015/01/11,19:10,0.609,0.391,0.646,0.585,0.572,0.270,0.244,north,6.2,Yes
2015/01/11,19:20,0.610,0.393,0.646,0.586,0.571,0.274,0.245,north,6.5,Yes
2015/01/11,19:30,0.610,0.392,0.646,0.584,0.573,0.275,0.246,north,6.5,Yes
2015/01/11,19:40,0.611,0.391,0.647,0.584,0.572,0.273,0.245,north-northwest,6.6,Yes
2015/01/11,19:50,0.611,0.391,0.645,0.585,0.572,0.272,0.245,north-northwest,6.5,Yes
2015/01/11,20:00,0.611,0.392,0.644,0.584,0.573,0.272,0.246,north-northwest,6.8,Yes
2015/01/11,20:10,0.610,0.392,0.646,0.584,0.571,0.274,0.246,north-northwest,6.5,Yes
2015/01/11,20:20,0.609,0.391,0.643,0.583,0.572,0.273,0.245,north-northwest,6.3,Yes
2015/01/11,20:30,0.607,0.391,0.641,0.582,0.571,0.272,0.246,north-northwest,5.6,Yes
2015/01/11,20:40,0.604,0.391,0.643,0.580,0.570,0.273,0.244,northwest,4.0,Yes
2015/01/11,20:50,0.604,0.388,0.638,0.580,0.566,0.269,0.243,north-northwest,4.1,No
2015/01/11,21:00,0.602,0.387,0.639,0.578,0.564,0.269,0.241,north-northwest,3.5,No
2015/01/11,21:10,0.603,0.384,0.637,0.576,0.565,0.266,0.239,north-northwest,3.3,No
2015/01/11,21:20,0.600,0.383,0.636,0.575,0.563,0.263,0.238,north-northwest,3.4,No
2015/01/11,21:30,0.599,0.382,0.635,0.574,0.561,0.263,0.237,north-northwest,3.0,No
2015/01/11,21:40,0.597,0.382,0.634,0.574,0.559,0.262,0.236,north-northwest,2.8,No
2015/01/11,21:50,0.597,0.380,0.634,0.573,0.559,0.261,0.235,north-northwest,3.1,No
2015/01/11,22:00,0.595,0.379,0.634,0.573,0.558,0.260,0.234,north,3.2,No
2015/01/11,22:10,0.595,0.380,0.633,0.572,0.559,0.260,0.233,north,3.8,No
2015/01/11,22:20,0.595,0.379,0.633,0.573,0.559,0.261,0.233,north,4.1,No
2015/01/11,22:30,0.593,0.378,0.635,0.571,0.558,0.259,0.234,north,4.0,No
2015/01/11,22:40,0.594,0.378,0.631,0.571,0.558,0.259,0.233,northwest,2.5,No
2015/01/11,22:50,0.593,0.378,0.633,0.571,0.559,0.259,0.233,west-northwest,2.1,No
2015/01/11,23:00,0.595,0.377,0.632,0.572,0.558,0.258,0.232,north-northwest,2.2,No
2015/01/11,23:10,0.594,0.378,0.633,0.569,0.558,0.259,0.233,north-northwest,4.0,No
2015/01/11,23:20,0.595,0.377,0.632,0.572,0.557,0.259,0.232,north-northwest,3.0,No
2015/01/11,23:30,0.595,0.376,0.631,0.572,0.557,0.259,0.232,west-northwest,1.4,No
2015/01/11,23:40,0.594,0.376,0.632,0.572,0.557,0.259,0.231,west,1.7,No
2015/01/11,23:50,0.592,0.376,0.632,0.571,0.556,0.259,0.231,north-northeast,0.7,No
